[[{"header":{"parameterUnit":"m.s-1","parameterCategory":1,"la1":30.2991,"la2":30.254,"lo1":-89.0895,"lo2":-89.0444,"dy":0.0017,"dx":0.0017,"nx":28,"ny":28,"refTime":"2024-08-27T03:00:00:Z","depth":0,"parameterNumber":2,"parameterNumberName":"U-component_of_WINDS"},"data":[0,0,0,0,0,0,0,0,0,0,0,0,0,0,0,0,0,0,0,0,0,0,0,0,0,0,0,0,0,0,0,0,0,0,0,0,0,0,0,0,0,0,0,0,0,0,0,0,0,0,0,0,0,0,0,0,0,0,-3.0892,-3.0891,0,-3.0826,-3.0825,-3.0824,-3.0753,-3.0752,-3.0751,-3.075,-3.0686,-3.0685,-3.0684,0,0,0,0,0,0,0,0,0,0,0,0,0,-3.0961,-3.0961,-3.0892,-3.0891,-3.089,-3.0826,-3.0825,-3.0824,-3.0753,-3.0752,-3.0751,-3.075,-3.0686,-3.0685,-3.0684,0,0,0,0,0,0,0,0,0,0,0,0,0,-3.0917,-3.096,-3.0892,-3.0847,-3.0842,-3.0826,-3.0825,-3.0824,-3.0754,-3.0752,-3.0751,-3.0749,-3.0686,-3.0685,-3.0684,-3.0707,0,0,-3.068,-3.068,0,0,0,0,0,0,0,0,-3.092,-3.0915,-3.0854,-3.085,-3.0845,-3.0796,-3.0826,-3.0785,-3.0754,-3.0787,-3.075,-3.0748,-3.0724,-3.072,-3.0711,-3.0704,-3.0701,-3.068,-3.068,-3.0679,-3.0679,0,0,0,0,0,0,0,-3.0923,-3.0917,-3.0866,-3.0854,-3.0848,-3.0832,-3.0824,-3.0818,-3.0765,-3.0784,-3.0779,-3.0772,-3.0721,-3.0712,-3.0709,-3.0701,-3.068,-3.0679,-3.0679,-3.0678,-3.0713,-3.0714,0,0,0,0,0,0,-3.0932,-3.092,-3.0868,-3.0864,-3.0879,-3.0832,-3.0823,-3.0813,-3.0765,-3.0756,-3.0773,-3.0769,-3.0715,-3.071,-3.0706,-3.0731,-3.0679,-3.0678,-3.0677,-3.0711,-3.0713,-3.0715,0,0,0,0,0,0,-3.0934,-3.0928,-3.087,-3.089,-3.0882,-3.0832,-3.0822,-3.0813,-3.0803,-3.0757,-3.0747,-3.0773,-3.0713,-3.0708,-3.0708,-3.0728,-3.0678,-3.0677,-3.0709,-3.0712,-3.0714,-3.0781,0,0,0,0,0,0,-3.0936,-3.0929,-3.0936,-3.0891,-3.0881,-3.0872,-3.0823,-3.0813,-3.0801,-3.0795,-3.0754,-3.0746,-3.0712,-3.071,-3.0707,-3.0725,-3.0676,-3.0707,-3.071,-3.0713,-3.0777,-3.0786,-3.0793,0,0,0,0,0,-3.0939,-3.0958,-3.0937,-3.0931,-3.0888,-3.0873,-3.0868,-3.0827,-3.0803,-3.0811,-3.0781,-3.0747,-3.0726,-3.071,-3.0706,-3.0725,-3.0706,-3.0709,-3.0713,-3.0773,-3.0784,-3.0793,0,0,0,0,0,0,-3.1007,-3.0951,-3.0927,-3.0932,-3.0908,-3.0861,-3.0869,-3.0839,-3.0822,-3.0817,-3.0768,-3.0759,-3.0766,-3.0745,-3.0729,-3.0746,-3.0711,-3.0714,-3.0759,-3.0768,-3.0776,-3.0781,-3.0675,0,0,0,0,0,-3.1023,-3.1014,-3.0966,-3.0975,-3.0964,-3.0919,-3.0911,-3.0882,-3.0855,-3.0845,-3.0815,-3.0792,-3.078,-3.0773,-3.076,-3.0774,-3.0765,-3.0785,-3.0793,-3.08,-3.0803,-3.0811,-3.082,-3.0727,-3.0726,-3.0726,0,0,-3.1055,-3.1023,-3.102,-3.0988,-3.0966,-3.0959,-3.0911,-3.0905,-3.09,-3.0844,-3.0842,-3.082,-3.0791,-3.0799,-3.0801,-3.0782,-3.0827,-3.0805,-3.081,-3.081,-3.0816,-3.0825,-3.0833,-3.0729,-3.0729,-3.0728,0,0,-3.111,-3.1084,-3.109,-3.1069,-3.1036,-3.1006,-3.1008,-3.0967,-3.095,-3.0947,-3.0905,-3.09,-3.088,-3.0861,-3.085,-3.0901,-3.087,-3.0898,-3.094,-3.0948,-3.0956,-3.0962,-3.0981,-3.0989,-3.0901,-3.0902,-3.0902,0,-3.1154,-3.1141,-3.1097,-3.1094,-3.1082,-3.1031,-3.1037,-3.1019,-3.0984,-3.0978,-3.0957,-3.0933,-3.091,-3.0913,-3.0926,-3.0918,-3.0919,-3.0902,-3.0958,-3.0964,-3.0969,-3.0987,-3.0994,-3.0905,-3.0905,-3.0904,-3.0904,0,-3.1197,-3.1189,-3.1198,-3.1165,-3.1154,-3.1156,-3.1114,-3.1108,-3.1081,-3.1054,-3.1054,-3.1024,-3.1005,-3.1004,-3.0977,-3.1005,-3.0994,-3.0967,-3.0931,-3.0982,-3.0999,-3.1005,-3.0911,-3.0909,-3.0908,-3.0907,0,0,-3.1291,-3.1236,-3.124,-3.1225,-3.1186,-3.118,-3.1181,-3.1161,-3.1158,-3.1137,-3.1137,-3.1123,-3.1098,-3.1085,-3.1056,-3.1063,-3.1108,-3.1035,-3.1034,-3.105,-3.1138,-3.1159,-3.1167,-3.1087,-3.1088,-3.1089,-3.1141,0,-3.134,-3.1336,-3.1298,-3.1306,-3.13,-3.1253,-3.1254,-3.1231,-3.1207,-3.1199,-3.1173,-3.1164,-3.1131,-3.1123,-3.1128,-3.1101,-3.1125,-3.1097,-3.1088,-3.1089,-3.1097,-3.1175,-3.1197,-3.1247,-3.1146,-3.1147,-3.1148,0,-3.1395,-3.1377,-3.1384,-3.1348,-3.1343,-3.1345,-3.1325,-3.1317,-3.1292,-3.1274,-3.1261,-3.1228,-3.1229,-3.1196,-3.1196,-3.1178,-3.1173,-3.116,-3.1161,-3.1158,-3.1121,-3.1175,-3.1261,-3.1269,-3.1157,-3.1157,-3.1156,0,-3.1463,-3.1441,-3.1443,-3.1432,-3.1389,-3.1392,-3.1374,-3.1347,-3.1339,-3.1322,-3.1316,-3.1301,-3.1292,-3.1281,-3.1246,-3.1225,-3.1252,-3.1215,-3.1238,-3.1239,-3.1245,-3.1245,-3.1332,-3.1242,-3.1242,-3.1242,-3.1242,0,-3.1521,-3.1528,-3.1474,-3.1475,-3.1482,-3.1439,-3.1448,-3.1426,-3.1403,-3.1401,-3.136,-3.1359,-3.1313,-3.1307,-3.128,-3.1286,-3.1282,-3.1269,-3.1262,-3.1273,-3.1275,-3.1268,-3.1264,-3.1244,-3.1244,-3.1243,-3.1243,0,-3.1598,-3.1562,-3.1561,-3.1521,-3.1512,-3.1519,-3.1485,-3.1486,-3.146,-3.1458,-3.1455,-3.1415,-3.1407,-3.1371,-3.1354,-3.1336,-3.1351,-3.1337,-3.136,-3.1355,-3.138,-3.1379,-3.1466,-3.1476,-3.138,-3.1381,-3.1382,0,-3.1637,-3.1641,-3.1602,-3.1597,-3.1582,-3.1574,-3.1566,-3.1525,-3.1518,-3.1491,-3.1496,-3.1484,-3.1472,-3.1462,-3.1432,-3.142,-3.1405,-3.1436,-3.1402,-3.1414,-3.1406,-3.1406,-3.1407,-3.1443,-3.1445,-3.1446,-3.1446,0,-3.171,-3.1693,-3.1681,-3.1665,-3.1656,-3.164,-3.1623,-3.1622,-3.1577,-3.1572,-3.1562,-3.1553,-3.1537,-3.1526,-3.151,-3.1493,-3.1463,-3.1458,-3.1462,-3.1473,-3.1486,-3.148,-3.138,-3.1455,-3.1455,-3.1454,-3.1453,-3.1453,-3.177,-3.1772,-3.1745,-3.1735,-3.1718,-3.1703,-3.1702,-3.1677,-3.1668,-3.1651,-3.1628,-3.1622,-3.16,-3.1574,-3.156,-3.1556,-3.1539,-3.1546,-3.1547,-3.155,-3.1556,-3.1488,-3.1553,-3.1553,-3.1552,-3.1552,-3.1552,0,-3.1841,-3.1822,-3.1813,-3.179,-3.1783,-3.1755,-3.1735,-3.1731,-3.1726,-3.1707,-3.1697,-3.1688,-3.1678,-3.1649,-3.1637,-3.1639,-3.1626,-3.1638,-3.1637,-3.1634,-3.1571,-3.1569,-3.1649,-3.1649,-3.1649,-3.1649,-3.1649,-3.1649,-3.1877,-3.188,-3.186,-3.1855,-3.1837,-3.183,-3.1821,-3.1809,-3.1793,-3.1785,-3.1776,-3.1757,-3.1735,-3.1721,-3.1712,-3.1704,-3.1701,-3.1718,-3.1706,-3.1648,-3.1638,-3.1629,-3.1626,-3.1718,-3.1718,-3.1769,-3.1769,-3.177]},{"header":{"parameterUnit":"m.s-1","parameterCategory":1,"la1":30.2991,"la2":30.254,"lo1":-89.0895,"lo2":-89.0444,"dy":0.0017,"dx":0.0017,"nx":28,"ny":28,"refTime":"2024-08-27T03:00:00:Z","depth":0,"parameterNumber":3,"parameterNumberName":"V-component_of_WINDS"},"data":[0,0,0,0,0,0,0,0,0,0,0,0,0,0,0,0,0,0,0,0,0,0,0,0,0,0,0,0,0,0,0,0,0,0,0,0,0,0,0,0,0,0,0,0,0,0,0,0,0,0,0,0,0,0,0,0,0,0,0.7934,0.7934,0,0.7982,0.7983,0.7983,0.8015,0.8015,0.8015,0.8015,0.8061,0.8062,0.8063,0,0,0,0,0,0,0,0,0,0,0,0,0,0.7864,0.7865,0.7934,0.7934,0.7935,0.7982,0.7983,0.7983,0.8015,0.8015,0.8015,0.8015,0.806,0.8062,0.8063,0,0,0,0,0,0,0,0,0,0,0,0,0,0.7901,0.7865,0.7934,0.7956,0.7959,0.7982,0.7983,0.7984,0.8015,0.8015,0.8015,0.8016,0.806,0.8061,0.8063,0.8066,0,0,0.8068,0.8068,0,0,0,0,0,0,0,0,0.7899,0.7904,0.7952,0.7955,0.7958,0.7993,0.7975,0.8011,0.8015,0.7993,0.8015,0.8016,0.8038,0.8041,0.8049,0.8068,0.807,0.8068,0.8069,0.8069,0.807,0,0,0,0,0,0,0,0.7897,0.7902,0.7953,0.7953,0.7956,0.7963,0.7968,0.7982,0.8013,0.7995,0.7998,0.8003,0.8039,0.8048,0.8051,0.8071,0.8068,0.8069,0.807,0.8071,0.8094,0.8093,0,0,0,0,0,0,0.7891,0.79,0.7951,0.7954,0.7929,0.7964,0.797,0.7981,0.8013,0.8018,0.8003,0.8004,0.8045,0.8049,0.8052,0.8057,0.8069,0.8071,0.8072,0.8094,0.8094,0.8093,0,0,0,0,0,0,0.7889,0.7895,0.7949,0.7928,0.7935,0.7965,0.7977,0.7982,0.7991,0.8019,0.8024,0.8006,0.8045,0.805,0.8062,0.8059,0.8071,0.8073,0.8094,0.8094,0.8093,0.8068,0,0,0,0,0,0,0.7887,0.7895,0.7897,0.7928,0.7936,0.796,0.7977,0.7983,0.7994,0.7996,0.8023,0.8028,0.8046,0.806,0.8064,0.8062,0.8074,0.8095,0.8094,0.8094,0.8069,0.8066,0.8064,0,0,0,0,0,0.7885,0.7887,0.7897,0.7903,0.794,0.796,0.7964,0.7986,0.7993,0.7995,0.8013,0.8027,0.8059,0.8061,0.8066,0.8064,0.8095,0.8094,0.8094,0.807,0.8067,0.8064,0,0,0,0,0,0,0.7854,0.7891,0.7903,0.7915,0.7934,0.7965,0.7968,0.7982,0.7998,0.8,0.8025,0.8031,0.804,0.8053,0.8055,0.8068,0.8079,0.8079,0.8059,0.8056,0.8054,0.805,0.8075,0,0,0,0,0,0.7849,0.7863,0.7895,0.7902,0.7912,0.7938,0.7947,0.7963,0.7983,0.799,0.8009,0.8027,0.8041,0.805,0.8064,0.8071,0.8077,0.8072,0.807,0.8068,0.8067,0.8071,0.8069,0.8091,0.8091,0.8091,0,0,0.7838,0.786,0.7867,0.7897,0.7913,0.7926,0.7945,0.7957,0.7967,0.7992,0.8005,0.8019,0.8041,0.805,0.8055,0.8061,0.8063,0.8067,0.8065,0.8066,0.807,0.8068,0.8067,0.8091,0.8091,0.8091,0,0,0.7824,0.7843,0.7852,0.7868,0.7893,0.7911,0.7913,0.7942,0.7953,0.7967,0.7986,0.7996,0.802,0.8035,0.8045,0.8037,0.805,0.8041,0.8028,0.8032,0.803,0.8029,0.8025,0.8024,0.8041,0.804,0.804,0,0.7807,0.7829,0.7854,0.7866,0.7878,0.7903,0.7911,0.7925,0.7953,0.796,0.7966,0.7997,0.8013,0.8026,0.8024,0.8032,0.8034,0.8037,0.8029,0.8028,0.8027,0.8023,0.8022,0.8039,0.8039,0.8039,0.804,0,0.7806,0.782,0.7824,0.7852,0.7864,0.7874,0.7899,0.7909,0.7923,0.7939,0.7952,0.7973,0.7992,0.7996,0.801,0.8011,0.8014,0.8024,0.8035,0.8023,0.802,0.8019,0.8037,0.8038,0.8038,0.8038,0,0,0.7774,0.7816,0.7817,0.7829,0.7859,0.787,0.788,0.79,0.7907,0.7926,0.7934,0.7954,0.7964,0.7976,0.7991,0.7994,0.7986,0.8004,0.8005,0.7999,0.7987,0.7978,0.7977,0.7995,0.7995,0.7995,0.7985,0,0.7764,0.7786,0.7809,0.7821,0.7834,0.7858,0.7867,0.7886,0.7902,0.7914,0.7931,0.7944,0.7957,0.7964,0.7969,0.7986,0.7983,0.7987,0.8002,0.8002,0.7995,0.7975,0.7966,0.7956,0.7984,0.7984,0.7984,0,0.7755,0.7774,0.7788,0.7817,0.7823,0.7831,0.7851,0.7863,0.7884,0.7895,0.7908,0.7925,0.7936,0.7946,0.7961,0.7962,0.797,0.7979,0.7979,0.7981,0.7991,0.7975,0.7953,0.7951,0.7983,0.7983,0.7983,0,0.7729,0.7758,0.777,0.778,0.7814,0.7819,0.7833,0.7854,0.7865,0.7881,0.7888,0.7906,0.7915,0.7927,0.7948,0.7954,0.796,0.7972,0.7968,0.7967,0.7967,0.7967,0.7945,0.7974,0.7974,0.7974,0.7974,0,0.7715,0.7723,0.7759,0.7766,0.7775,0.7801,0.7809,0.7825,0.7844,0.7853,0.7875,0.7884,0.7911,0.7922,0.7938,0.7947,0.7951,0.7959,0.7963,0.7957,0.7956,0.7961,0.7962,0.7973,0.7973,0.7973,0.7974,0,0.7687,0.7712,0.7727,0.7758,0.7766,0.7771,0.7796,0.7804,0.7821,0.7833,0.7838,0.7864,0.7879,0.7901,0.7922,0.7932,0.7938,0.7945,0.7931,0.7934,0.7928,0.7928,0.7908,0.7907,0.7937,0.7937,0.7936,0,0.7676,0.7683,0.7715,0.7724,0.7737,0.7751,0.7762,0.7788,0.7798,0.7823,0.7827,0.7843,0.7858,0.788,0.79,0.7916,0.7923,0.7915,0.7925,0.7918,0.7921,0.792,0.792,0.7912,0.7911,0.7911,0.7911,0,0.7654,0.7666,0.7682,0.7702,0.7714,0.7731,0.7749,0.7754,0.7783,0.7794,0.7809,0.7821,0.7843,0.7858,0.7877,0.789,0.7904,0.7908,0.7907,0.79,0.7891,0.7895,0.7924,0.7908,0.7908,0.7908,0.7908,0.7908,0.7633,0.764,0.7664,0.768,0.7697,0.7713,0.7721,0.774,0.7754,0.7775,0.7789,0.7803,0.7824,0.785,0.7863,0.7874,0.788,0.788,0.7879,0.7879,0.7876,0.7891,0.7877,0.7877,0.7877,0.7877,0.7878,0,0.7611,0.7628,0.7643,0.7667,0.768,0.7695,0.7715,0.7724,0.7738,0.7756,0.777,0.7788,0.7803,0.7825,0.7842,0.7846,0.7853,0.7849,0.7849,0.7851,0.787,0.7868,0.7843,0.7843,0.7843,0.7843,0.7843,0.7843,0.7601,0.7613,0.7628,0.7647,0.7664,0.768,0.769,0.7704,0.7719,0.7738,0.7751,0.7766,0.7786,0.7804,0.7818,0.7824,0.7829,0.7822,0.783,0.7847,0.785,0.7853,0.7851,0.7824,0.7824,0.7811,0.7811,0.781]}]]